User: anonymous   Login
Location: Byszew
(52.1813°N, 19.2693°E)
Time: 02:38:30
(UTC+00:00)
Language:

Cosmos 1980 Rocket - Orbit

View from above orbital plane
View from above orbital plane
View from above satellite
View from above satellite

Ground track
Ground track

The orbit data is extracted from the following two-line orbital elements,

1 19650U 88102B   21337.33490024  .00000269  00000-0  16083-3 0  9999
2 19650  70.9987 187.2543 0015902 227.7032 132.2744 14.15813845706447
Epoch (UTC): 03 December 2021 08:02:15
Eccentricity: 0.0015902
inclination: 70.9987°
perigee height: 828 km
apogee height: 851 km
right ascension of ascending node: 187.2543°
argument of perigee: 227.7032°
revolutions per day: 14.15813845
mean anomaly at epoch: 132.2744°
orbit number at epoch: 70644

The dashed part of the orbit path shows where the satellite is in the earth's shadow,  

DLR